CW1238 Weather Reports


Display with metric or nautical units.
time (UTC)temp
F
wind
direction
speed
MPH
gust
MPH
rain 1hr
in
rain 24hr
in
rain mn
in
humidity
%
barometer
mb
20260506032646 44 235 1.0 1.0 0.00 0.00 0.00 49 1050.9
20260506032143 44 182 1.0 2.0 0.00 0.00 0.00 48 1050.8
20260506031640 44 224 1.0 2.0 0.00 0.00 0.00 48 1050.8
20260506031137 44 189 1.0 2.0 0.00 0.00 0.00 48 1050.7
20260506030636 45 185 0.0 2.0 0.00 0.00 0.00 47 1050.8
20260506030132 45 201 1.0 2.0 0.00 0.00 0.00 47 1050.6
20260506025629 45 203 0.0 3.0 0.00 0.00 0.00 47 1050.4
20260506025125 45 279 2.0 2.0 0.00 0.00 0.00 47 1050.4
20260506024623 45 347 1.0 3.0 0.00 0.00 0.00 47 1050.4
20260506024119 45 292 2.0 4.0 0.00 0.00 0.00 46 1050.4
20260506023615 45 198 1.0 1.0 0.00 0.00 0.00 47 1050.3
20260506023113 46 216 1.0 1.0 0.00 0.00 0.00 47 1050.2
20260506022610 46 198 0.0 1.0 0.00 0.00 0.00 46 1050.2
20260506022107 46 160 0.0 3.0 0.00 0.00 0.00 44 1049.9
20260506021605 46 163 1.0 1.0 0.00 0.00 0.00 45 1050.1
20260506021102 47 200 1.0 1.0 0.00 0.00 0.00 44 1050.0
20260506020559 47 178 1.0 1.0 0.00 0.00 0.00 43 1050.0
20260506020057 47 240 1.0 1.0 0.00 0.00 0.00 45 1049.8
20260506015554 47 204 0.0 1.0 0.00 0.00 0.00 44 1049.9
20260506015051 47 247 1.0 2.0 0.00 0.00 0.00 43 1049.7
20260506014548 47 248 1.0 1.0 0.00 0.00 0.00 44 1049.6
20260506014043 47 217 0.0 2.0 0.00 0.00 0.00 42 1049.5
20260506013542 48 236 2.0 3.0 0.00 0.00 0.00 41 1049.4
20260506013038 48 202 1.0 2.0 0.00 0.00 0.00 41 1049.4
20260506012535 48 327 1.0 2.0 0.00 0.00 0.00 41 1049.2
20260506012032 48 306 2.0 3.0 0.00 0.00 0.00 41 1049.3
20260506011529 48 173 1.0 2.0 0.00 0.00 0.00 42 1049.2
20260506011025 48 31 2.0 2.0 0.00 0.00 0.00 41 1049.3
20260506010525 48 298 1.0 3.0 0.00 0.00 0.00 41 1049.0
20260506010021 48 263 1.0 3.0 0.00 0.00 0.00 40 1049.0
20260506005518 49 353 0.0 1.0 0.00 0.00 0.00 41 1048.9
20260506005014 49 132 1.0 1.0 0.00 0.00 0.00 40 1048.8
20260506004512 49 17 1.0 3.0 0.00 0.00 0.00 38 1049.0
20260506004008 49 187 1.0 2.0 0.00 0.00 0.00 39 1049.0
20260506003504 49 243 1.0 2.0 0.00 0.00 0.00 38 1048.8
20260506003000 49 311 2.0 7.0 0.00 0.00 0.00 38 1048.9
20260506002456 50 124 2.0 3.0 0.00 0.00 0.00 39 1048.7
20260506001952 50 256 1.0 7.0 0.00 0.00 0.00 39 1048.7
20260506001449 50 342 3.0 7.0 0.00 0.00 0.00 37 1048.7
20260506000946 50 347 2.0 3.0 0.00 0.00 0.00 40 1048.5
20260506000445 50 300 1.0 2.0 0.00 0.00 0.00 38 1048.7
20260505235941 50 173 0.0 2.0 0.00 0.00 0.00 41 1048.6
20260505235439 50 286 1.0 6.0 0.00 0.00 0.00 38 1048.5
20260505234935 50 199 1.0 4.0 0.00 0.00 0.00 38 1048.6
20260505234433 50 289 2.0 3.0 0.00 0.00 0.00 40 1048.4
20260505233929 50 329 2.0 6.0 0.00 0.00 0.00 38 1048.5
20260505233427 50 290 3.0 9.0 0.00 0.00 0.00 38 1048.8
20260505232924 50 282 1.0 2.0 0.00 0.00 0.00 40 1048.4
20260505232422 51 263 2.0 4.0 0.00 0.00 0.00 39 1048.4
20260505231919 51 355 4.0 4.0 0.00 0.00 0.00 39 1048.3
20260505231416 52 280 3.0 4.0 0.00 0.00 0.00 37 1048.5
20260505230914 51 236 2.0 3.0 0.00 0.00 0.00 39 1048.5
20260505230412 51 89 2.0 2.0 0.00 0.00 0.00 39 1048.6
20260505225908 51 254 2.0 3.0 0.00 0.00 0.00 40 1048.5
20260505225406 51 275 3.0 6.0 0.00 0.00 0.00 40 1048.4
20260505224905 51 306 3.0 4.0 0.00 0.00 0.00 40 1048.4
20260505224403 51 17 3.0 7.0 0.00 0.00 0.00 40 1048.8
20260505223900 51 28 2.0 4.0 0.00 0.00 0.00 39 1048.5
20260505223357 52 52 1.0 2.0 0.00 0.00 0.00 38 1048.5
20260505222853 51 315 2.0 4.0 0.00 0.00 0.00 39 1048.4
20260505222349 51 251 1.0 4.0 0.00 0.00 0.00 38 1048.4
20260505221846 52 330 2.0 6.0 0.00 0.00 0.00 41 1048.5
20260505221343 51 301 2.0 7.0 0.00 0.00 0.00 39 1048.6
20260505220840 52 316 3.0 6.0 0.00 0.00 0.00 39 1048.7
20260505220337 52 307 3.0 7.0 0.00 0.00 0.00 37 1048.7
20260505215835 51 284 1.0 4.0 0.00 0.00 0.00 41 1048.8
20260505215333 51 25 4.0 6.0 0.00 0.00 0.00 38 1048.7
20260505214831 51 317 3.0 6.0 0.00 0.00 0.00 39 1048.6
20260505214328 51 285 2.0 6.0 0.00 0.00 0.00 40 1048.6
20260505213825 51 309 2.0 4.0 0.00 0.00 0.00 39 1048.4
20260505213323 51 303 3.0 6.0 0.00 0.00 0.00 39 1048.6
20260505212818 51 297 2.0 4.0 0.00 0.00 0.00 39 1048.3
20260505212316 51 330 2.0 4.0 0.00 0.00 0.00 40 1048.5
20260505211812 51 343 3.0 4.0 0.00 0.00 0.00 39 1048.5
20260505211310 51 325 1.0 4.0 0.00 0.00 0.00 41 1048.7
20260505210806 51 299 2.0 6.0 0.00 0.00 0.00 38 1048.5
20260505210303 51 34 3.0 6.0 0.00 0.00 0.00 40 1048.3
20260505205800 51 197 1.0 4.0 0.00 0.00 0.00 41 1048.5
20260505205258 51 295 2.0 3.0 0.00 0.00 0.00 41 1048.6
20260505204754 51 184 1.0 2.0 0.00 0.00 0.00 43 1048.7
20260505204252 51 300 3.0 4.0 0.00 0.00 0.00 41 1048.7
20260505203749 51 280 5.0 6.0 0.00 0.00 0.00 40 1048.7
20260505203246 51 285 2.0 4.0 0.00 0.00 0.00 42 1048.8
20260505202742 51 293 3.0 4.0 0.00 0.00 0.00 41 1048.7
20260505202238 51 216 1.0 9.0 0.00 0.00 0.00 40 1048.8
20260505201735 51 278 2.0 6.0 0.00 0.00 0.00 40 1048.7
20260505201233 51 290 3.0 4.0 0.00 0.00 0.00 38 1048.8
20260505200731 51 238 1.0 3.0 0.00 0.00 0.00 40 1048.7
20260505200228 51 338 3.0 4.0 0.00 0.00 0.00 40 1048.9
20260505195723 51 223 1.0 3.0 0.00 0.00 0.00 39 1048.8
20260505195221 53 292 4.0 6.0 0.00 0.00 0.00 39 1048.9
20260505194718 52 309 3.0 4.0 0.00 0.00 0.00 40 1048.8
20260505194214 52 251 1.0 4.0 0.00 0.00 0.00 40 1048.8
20260505193710 52 41 1.0 3.0 0.00 0.00 0.00 41 1048.8
20260505193207 51 275 4.0 7.0 0.00 0.00 0.00 41 1048.9
20260505192706 51 236 2.0 3.0 0.00 0.00 0.00 42 1049.0
20260505192203 51 212 2.0 3.0 0.00 0.00 0.00 42 1049.2
20260505191702 51 221 1.0 6.0 0.00 0.00 0.00 42 1049.3
20260505191159 50 0 1.0 3.0 0.00 0.00 0.00 42 1049.2
20260505190655 50 293 3.0 4.0 0.00 0.00 0.00 42 1049.2
20260505190155 51 292 4.0 8.0 0.00 0.00 0.00 43 1049.2
20260505185652 50 318 3.0 7.0 0.00 0.00 0.00 41 1049.0
20260505185148 50 260 5.0 7.0 0.00 0.00 0.00 42 1049.2
20260505184645 51 276 4.0 4.0 0.00 0.00 0.00 42 1049.2
20260505184142 52 225 4.0 7.0 0.00 0.00 0.00 42 1049.0
20260505183639 51 244 3.0 6.0 0.00 0.00 0.00 42 1048.9
20260505183137 51 259 4.0 7.0 0.00 0.00 0.00 45 1049.0
20260505182632 50 275 4.0 6.0 0.00 0.00 0.00 43 1049.4
20260505182129 50 224 4.0 7.0 0.00 0.00 0.00 44 1049.2
20260505181626 50 227 1.0 3.0 0.00 0.00 0.00 42 1049.5
20260505181123 50 293 3.0 7.0 0.00 0.00 0.00 41 1049.5
20260505180619 50 314 4.0 6.0 0.00 0.00 0.00 42 1049.4
20260505180117 50 262 2.0 8.0 0.00 0.00 0.00 42 1049.5
20260505175613 49 255 2.0 2.0 0.00 0.00 0.00 42 1049.5
20260505175109 49 222 5.0 6.0 0.00 0.00 0.00 41 1049.4
20260505174606 50 294 2.0 3.0 0.00 0.00 0.00 44 1049.3
20260505174102 51 181 2.0 6.0 0.00 0.00 0.00 41 1049.4
20260505173554 50 195 1.0 4.0 0.00 0.00 0.00 38 1049.5
20260505173051 50 319 4.0 9.0 0.00 0.00 0.00 42 1049.5
20260505172548 50 303 5.0 7.0 0.00 0.00 0.00 40 1049.5
20260505172044 50 233 1.0 3.0 0.00 0.00 0.00 48 1049.4
20260505171545 49 276 3.0 6.0 0.00 0.00 0.00 42 1049.5
20260505171042 49 298 1.0 2.0 0.00 0.00 0.00 45 1049.3
20260505170539 49 197 0.0 3.0 0.00 0.00 0.00 44 1049.4
20260505170035 49 239 2.0 7.0 0.00 0.00 0.00 45 1049.5
20260505165530 49 339 4.0 6.0 0.00 0.00 0.00 43 1049.5
20260505165026 48 211 2.0 10.0 0.00 0.00 0.00 45 1049.4
20260505164522 48 270 2.0 4.0 0.00 0.00 0.00 44 1049.6
20260505164020 48 299 5.0 7.0 0.00 0.00 0.00 44 1049.5
20260505163519 48 115 2.0 7.0 0.00 0.00 0.00 45 1049.4
20260505163015 48 171 1.0 3.0 0.00 0.00 0.00 49 1049.6
20260505162508 49 308 1.0 9.0 0.00 0.00 0.00 44 1049.3
20260505162005 48 314 2.0 4.0 0.00 0.00 0.00 44 1049.4
20260505161456 49 180 4.0 4.0 0.00 0.00 0.00 45 1049.5
20260505160953 50 216 3.0 7.0 0.00 0.00 0.00 43 1049.5
20260505160451 49 297 3.0 6.0 0.00 0.00 0.00 44 1049.5
20260505152922 48 292 2.0 4.0 0.00 0.00 0.00 45 1049.3
20260505152420 49 269 2.0 3.0 0.00 0.00 0.00 45 1049.3
20260505151919 50 174 2.0 3.0 0.00 0.00 0.00 44 1049.4
20260505151415 50 9 3.0 4.0 0.00 0.00 0.00 45 1049.2
20260505150913 50 39 2.0 4.0 0.00 0.00 0.00 44 1049.2
20260505150410 49 216 1.0 3.0 0.00 0.00 0.00 47 1049.3
20260505140340 48 167 3.0 4.0 0.00 0.00 0.00 44 1048.7
20260505130303 44 326 4.0 4.0 0.00 0.00 0.00 53 1048.8
20260505124754 42 231 1.0 2.0 0.00 0.00 0.00 58 1048.7
20260505124250 42 263 1.0 2.0 0.00 0.00 0.00 61 1048.7
20260505123746 42 206 1.0 2.0 0.00 0.00 0.00 59 1048.4
20260505123243 42 225 1.0 2.0 0.00 0.00 0.00 61 1048.5
20260505122739 41 204 0.0 0.0 0.00 0.00 0.00 64 1048.5
20260505122237 40 208 0.0 1.0 0.00 0.00 0.00 64 1048.5
20260505121733 39 208 1.0 1.0 0.00 0.00 0.00 65 1048.3
20260505121230 38 208 0.0 1.0 0.00 0.00 0.00 67 1048.2
20260505120726 37 209 0.0 0.0 0.00 0.00 0.00 68 1048.2
20260505120222 36 211 0.0 0.0 0.00 0.00 0.00 70 1048.1
20260505115721 36 208 0.0 0.0 0.00 0.00 0.00 72 1047.9
20260505115219 35 208 0.0 0.0 0.00 0.00 0.00 71 1048.0
20260505114716 35 209 0.0 0.0 0.00 0.00 0.00 72 1048.1
20260505114212 35 208 0.0 1.0 0.00 0.00 0.00 74 1047.9
20260505113709 34 208 0.0 1.0 0.00 0.00 0.00 74 1047.7
20260505113206 34 208 0.0 0.0 0.00 0.00 0.00 77 1047.7
20260505112702 34 208 0.0 0.0 0.00 0.00 0.00 77 1047.5
20260505112200 34 208 0.0 0.0 0.00 0.00 0.00 76 1047.6
20260505111659 34 208 0.0 0.0 0.00 0.00 0.00 75 1047.5
20260505111155 34 212 1.0 1.0 0.00 0.00 0.00 74 1047.5
20260505110651 34 212 0.0 0.0 0.00 0.00 0.00 75 1047.3
20260505110149 34 212 0.0 0.0 0.00 0.00 0.00 76 1047.4
20260505102125 36 214 0.0 0.0 0.00 0.00 0.00 70 1046.4
20260505101623 36 218 0.0 0.0 0.00 0.00 0.00 69 1046.0
20260505101119 36 218 0.0 0.0 0.00 0.00 0.00 68 1046.3
20260505100615 36 218 0.0 0.0 0.00 0.00 0.00 67 1046.3
20260505100113 37 218 0.0 0.0 0.00 0.00 0.00 66 1046.3
20260505095609 38 218 0.0 0.0 0.00 0.00 0.00 64 1046.2
20260505095105 38 218 0.0 0.0 0.00 0.00 0.00 63 1046.0
20260505094602 39 218 0.0 1.0 0.00 0.00 0.00 62 1046.2
20260505094058 39 218 0.0 0.0 0.00 0.00 0.00 62 1046.2
20260505093554 39 220 0.0 1.0 0.00 0.00 0.00 61 1046.3
20260505093052 39 205 1.0 1.0 0.00 0.00 0.00 61 1046.2
20260505092549 40 232 0.0 1.0 0.00 0.00 0.00 60 1045.8
20260505092048 40 263 1.0 1.0 0.00 0.00 0.00 60 1045.8
20260505091544 40 229 0.0 1.0 0.00 0.00 0.00 58 1045.7
20260505091042 41 259 1.0 2.0 0.00 0.00 0.00 58 1045.7
20260505090540 40 228 0.0 2.0 0.00 0.00 0.00 59 1045.8
20260505090038 41 228 0.0 0.0 0.00 0.00 0.00 58 1045.8
20260505085535 41 217 0.0 1.0 0.00 0.00 0.00 58 1045.6
20260505085033 41 224 0.0 1.0 0.00 0.00 0.00 57 1045.8
20260505084531 41 221 1.0 3.0 0.00 0.00 0.00 56 1046.0
20260505084029 41 195 1.0 2.0 0.00 0.00 0.00 56 1045.9
20260505083526 41 205 1.0 1.0 0.00 0.00 0.00 56 1045.8
20260505083022 41 193 0.0 1.0 0.00 0.00 0.00 55 1045.8
20260505082518 42 271 0.0 2.0 0.00 0.00 0.00 55 1045.8
20260505082015 42 216 1.0 1.0 0.00 0.00 0.00 57 1045.7
20260505081512 42 210 1.0 1.0 0.00 0.00 0.00 56 1045.6
20260505081008 42 180 1.0 2.0 0.00 0.00 0.00 56 1045.6
20260505080505 42 211 0.0 1.0 0.00 0.00 0.00 55 1045.6
20260505080000 42 174 1.0 1.0 0.00 0.00 0.00 55 1045.4
20260505075457 42 217 1.0 1.0 0.00 0.00 0.00 54 1045.5
20260505074954 43 179 1.0 2.0 0.00 0.00 0.00 54 1045.3
20260505074452 43 240 1.0 2.0 0.00 0.00 0.00 54 1045.2
20260505073949 43 213 1.0 2.0 0.00 0.00 0.00 53 1045.3
20260505073446 43 248 1.0 2.0 0.00 0.00 0.00 54 1045.2
20260505072943 43 247 0.0 0.0 0.00 0.00 0.00 53 1045.2
20260505072440 43 231 1.0 2.0 0.00 0.00 0.00 53 1045.2
20260505071936 43 190 0.0 2.0 0.00 0.00 0.00 53 1045.1
20260505071432 44 239 0.0 2.0 0.00 0.00 0.00 53 1045.2
20260505070930 44 314 0.0 2.0 0.00 0.00 0.00 52 1045.2
20260505070426 44 289 1.0 2.0 0.00 0.00 0.00 51 1045.1
20260505065922 44 288 1.0 2.0 0.00 0.00 0.00 52 1045.0
20260505065419 44 181 0.0 2.0 0.00 0.00 0.00 51 1045.0
20260505064916 44 205 0.0 1.0 0.00 0.00 0.00 52 1045.1
20260505064413 44 296 0.0 1.0 0.00 0.00 0.00 51 1045.3
20260505063911 44 313 2.0 2.0 0.00 0.00 0.00 51 1045.3
20260505063407 44 214 1.0 3.0 0.00 0.00 0.00 51 1045.2
20260505062904 44 206 1.0 2.0 0.00 0.00 0.00 50 1045.2
20260505062401 44 194 0.0 2.0 0.00 0.00 0.00 52 1045.0
20260505061857 44 262 2.0 3.0 0.00 0.00 0.00 51 1045.0
20260505061356 44 251 0.0 1.0 0.00 0.00 0.00 51 1044.9
20260505060853 44 196 1.0 1.0 0.00 0.00 0.00 50 1045.0
20260505060350 44 277 0.0 2.0 0.00 0.00 0.00 51 1045.1
20260505055846 44 271 2.0 2.0 0.00 0.00 0.00 50 1045.1
20260505055342 44 252 1.0 2.0 0.00 0.00 0.00 51 1045.0
20260505054839 44 210 0.0 1.0 0.00 0.00 0.00 51 1045.0
20260505054337 44 212 1.0 1.0 0.00 0.00 0.00 52 1045.0
20260505053835 44 198 0.0 1.0 0.00 0.00 0.00 52 1045.0
20260505053331 45 218 1.0 1.0 0.00 0.00 0.00 51 1045.0
20260505052828 45 206 1.0 1.0 0.00 0.00 0.00 50 1045.0
20260505052325 45 200 1.0 2.0 0.00 0.00 0.00 51 1045.0
20260505051822 45 230 1.0 2.0 0.00 0.00 0.00 50 1045.1
20260505051319 46 195 1.0 3.0 0.00 0.00 0.00 49 1045.0
20260505050817 46 278 1.0 2.0 0.00 0.00 0.00 49 1045.0
20260505050316 46 301 1.0 2.0 0.00 0.00 0.00 50 1045.0
20260505041746 48 85 1.0 6.0 0.00 0.00 0.00 48 1045.0
20260505041243 48 191 2.0 2.0 0.00 0.00 0.00 48 1045.1
20260505040740 48 72 2.0 4.0 0.00 0.00 0.00 48 1045.1
20260505040237 48 282 2.0 4.0 0.00 0.00 0.00 48 1045.0
20260505035734 48 272 2.0 3.0 0.00 0.00 0.00 49 1045.2
20260505035230 48 261 1.0 2.0 0.00 0.00 0.00 48 1044.9
20260505034727 48 273 3.0 4.0 0.00 0.00 0.00 48 1044.9
20260505034224 48 297 2.0 6.0 0.00 0.00 0.00 48 1045.1
20260505033720 48 333 3.0 4.0 0.00 0.00 0.00 47 1045.1
20260505033219 49 139 2.0 6.0 0.00 0.00 0.00 47 1045.1